This is the latest recevied weather packets stored in our database for station/object KB1FFS. If no packets are shown the sender has not sent any weather packets the latest 10 day(s).
| Time | Temp. | Humidity | Pressure | Rain* | Wind** | Luminosity | Snow |
|---|---|---|---|---|---|---|---|
| 1787534504 | 37.78° C | 31% | 1012.3 hPa | 0 mm | - | 0 W/m² | - |
| 1787534202 | 38.33° C | 30% | 1012.5 hPa | 0 mm | - | 0 W/m² | - |
| 1787533899 | 38.33° C | 31% | 1012.3 hPa | 0 mm | - | 1 W/m² | - |
| 1787533595 | 38.33° C | 30% | 1012.3 hPa | 0 mm | - | 2 W/m² | - |
| 1787533292 | 38.89° C | 29% | 1012.5 hPa | 0 mm | - | 3 W/m² | - |
| 1787532986 | 38.89° C | 29% | 1012.3 hPa | 0 mm | - | 5 W/m² | - |
| 1787532681 | 38.89° C | 29% | 1012.3 hPa | 0 mm | - | 8 W/m² | - |
| 1787532377 | 39.44° C | 29% | 1012.4 hPa | 0 mm | - | 12 W/m² | - |
| 1787532073 | 39.44° C | 28% | 1012.1 hPa | 0 mm | - | 15 W/m² | - |
| 1787531768 | 39.44° C | 28% | 1012.3 hPa | 0 mm | - | 21 W/m² | - |
| 1787531464 | 39.44° C | 28% | 1012.3 hPa | 0 mm | - | 26 W/m² | - |
| 1787531160 | 40° C | 28% | 1012.4 hPa | 0 mm | - | 31 W/m² | - |
| 1787530856 | 40° C | 28% | 1011.9 hPa | 0 mm | - | 35 W/m² | - |
| 1787530555 | 40° C | 29% | 1012 hPa | 0 mm | - | 39 W/m² | - |
| 1787530250 | 40° C | 27% | 1012.3 hPa | 0 mm | - | 43 W/m² | - |
| 1787529946 | 40.56° C | 28% | 1012.1 hPa | 0 mm | - | 46 W/m² | - |
| 1787529641 | 41.11° C | 32% | 1012.3 hPa | 0 mm | - | 81 W/m² | - |
| 1787529336 | 41.67° C | 27% | 1012.1 hPa | 0 mm | - | 96 W/m² | - |
| 1787529031 | 42.22° C | 27% | 1012.3 hPa | 0 mm | - | 101 W/m² | - |
| 1787528728 | 42.78° C | 24% | 1012.2 hPa | 0 mm | - | 64 W/m² | - |
| 1787528427 | 42.78° C | 25% | 1012.2 hPa | 0 mm | - | 133 W/m² | - |
| 1787528124 | 42.78° C | 25% | 1012.1 hPa | 0 mm | - | 146 W/m² | - |
| 1787527820 | 43.33° C | 24% | 1012.2 hPa | 0 mm | - | 156 W/m² | - |
| 1787527515 | 43.33° C | 24% | 1012.3 hPa | 0 mm | - | 172 W/m² | - |
| 1787527210 | 43.33° C | 24% | 1012.2 hPa | 0 mm | - | 196 W/m² | - |
* Rain latest hour (hover to see other rain measurements)
** Current wind speed in m/s (hover to see current wind gust speed)